Portada
METAR-TAF:

METAR-TAF

Aeroports :

Pembrey, Gal·les

latitud: 51-43N, longitud: 004-22W, altitud: 3 m

Observació

L'informe es va fer fa 1 hora i 14 minuts, a les 14:50 UTC
Vent 24 kt del Oest amb ràfegues de 34 kt
Temperatura 7°C
Humitat 87%
Pressió 1015 hPa
Visibilitat: 7000 m

METAR: EGOP 181450Z AUTO 26024G34KT 7000 // FEW020/// SCT023/// BKN036/// 07/05 Q1015

Hora: 16:04 (16:04 UTC)


TAF: manca

Observacions i pronòstics meteorològics de més de 4000 aeroports (METAR i TAF).

Les estacions disponibles són els punts grocs i vermells al mapa.

Posi el ratolí al punt desitjat per veure el nom de l'estació.

Feu clic per veure les observacions i els pronòstics meteorològics.

Per canviar el mapa: feu clic els botons verds amb una creu de color negre per apropar; al botó verd amb un guió per allunyar la imatge; o en les fletxes verdes per a mapes adjacents.


METAR-TAF: